Вернуться в каталог

COSMOS 2458

GLONASS

АктивенНавигацияMEO
NORAD 36113·PAYLOAD·🇷🇺 Russia

Запущен Dec 14, 2009 с Baikonur Cosmodrome

Loading…

Ближайшие Пролёты (ближайшие 24 часа)

TLE

СвежийSource: Space-Track

Эпоха: Sep 14, 2026, 11:51 UTC

1 36113U 09070C   26257.49404764 -.00000013  00000-0  00000-0 0  9995
2 36113  65.0590  67.8233 0003470 313.1430  48.4470  2.13082230130360

Отслеживайте COSMOS 2458 в реальном времени с AllMySat

Download on the App Store